Location: Ostrava
(49.8330°N, 18.2830°E)
Time: 02:13:48
(UTC+02:00)

Daily predictions for brighter satellites

Satellite Brightness Start Highest point End
(mag) Time Altitude Azimuth Time Altitude Azimuth Time Altitude Azimuth
Cosmos 405 Rocket 4.2 00:04:04 23° ESE 00:04:42 24° E 00:07:48 10° NE
Landsat 5 3.4 00:04:58 42° SE 00:06:11 70° ENE 00:10:13 10° N
Cosmos 1340 2.6 00:05:22 48° S 00:06:22 89° ESE 00:10:12 10° NNE
Cosmos 1076 Rocket 4.1 00:07:22 35° SE 00:08:31 44° E 00:12:34 10° NNE
BREEZE-M DEB (TANK) 3.8 00:09:59 24° E 00:09:59 24° E 00:11:39 10° E
Cosmos 1553 Rocket 4.2 00:03:30 10° N 00:09:48 65° ENE 00:13:17 28° SSE
Okean 3 Rocket 3.6 00:10:31 37° SSW 00:12:12 79° W 00:16:40 10° N
Meteor 1-24 Rocket 4.1 00:09:47 31° SSE 00:12:36 57° E 00:18:23 10° NNE
Lacrosse 4 Rocket 3.0 00:11:22 10° WSW 00:15:02 32° NW 00:18:46 10° NNE
SL-27 R/B 3.9 00:14:15 20° WSW 00:15:55 32° WNW 00:18:59 10° N
NOSS 3-3 (A) 4.4 00:08:39 10° NW 00:15:58 88° SW 00:21:36 21° SE
NOSS 3-3 (C) 4.4 00:08:46 10° NW 00:16:06 89° SW 00:21:44 21° SE
Cosmos 1943 Rocket 3.6 00:12:19 10° NW 00:16:40 24° WSW 00:18:57 19° SW
Cosmos 1092 Rocket 4.5 00:19:10 22° SSW 00:23:19 56° WNW 00:29:31 10° N
Meteor 2-5 Rocket 3.9 00:21:19 28° SSW 00:24:33 75° WNW 00:30:22 10° N
Cosmos 1707 3.0 00:25:38 41° SW 00:26:51 64° WNW 00:30:46 10° N
NOSS 3-2 (C) 4.1 00:26:13 30° SSE 00:28:25 39° ESE 00:34:32 10° NE
Cosmos 1741 Rocket 4.4 00:26:54 23° SW 00:30:11 63° WNW 00:35:30 10° NNE
CZ-2C R/B 4.2 00:30:02 18° SE 00:33:43 42° ENE 00:39:04 10° N
ALOS 2 3.0 00:33:16 37° SSW 00:34:37 51° W 00:38:54 10° NNW
S3M 3.9 00:29:27 10° N 00:35:46 84° W 00:38:53 32° S
CZ-4B R/B 2.1 00:35:47 41° SW 00:36:23 45° W 00:39:58 10° NNW
SL-8 R/B 4.1 00:31:57 10° W 00:36:27 39° SSW 00:36:44 38° SSW
ISS -3.1 00:33:35 10° W 00:36:50 68° N 00:40:06 10° ENE
Cosmos 1656 4.5 00:31:33 10° NNW 00:37:07 49° NE 00:41:40 15° SE
Meteor 2-1 Rocket 4.5 00:31:19 10° NNW 00:37:12 65° W 00:39:55 32° SSW
CZ-4C R/B 4.2 00:37:18 26° WSW 00:37:31 26° W 00:40:18 10° NW
CZ-4C R/B 2.6 00:39:26 34° S 00:41:20 47° ESE 00:47:08 10° NE
Cosmos 1655 Rocket 4.1 00:38:47 28° SSW 00:42:16 72° W 00:48:33 10° N
Lacrosse 5 2.5 00:39:04 10° NW 00:44:03 55° NNE 00:49:01 10° ESE
CZ-2C R/B 3.2 00:40:54 10° NNE 00:46:18 48° E 00:48:39 30° SSE
Cosmos 1408 Rocket 3.6 00:45:43 40° SSW 00:47:17 74° W 00:51:47 10° N
SL-23 DEB 3.3 00:47:03 24° WSW 00:49:09 83° SSE 00:52:16 10° ENE
Cosmos 841 Rocket 3.7 00:43:58 10° NNW 00:49:13 68° ENE 00:52:09 26° SE
Cosmos 2369 3.6 00:50:11 10° NNW 00:55:51 76° WSW 00:58:33 32° SSE
Cosmos 1428 Rocket 4.4 00:53:41 31° SSW 00:56:50 82° W 01:03:05 10° N
In-Cosmos 22 4.4 00:58:06 32° SSE 01:00:36 61° E 01:06:12 10° NNE
Cosmos 2344 4.2 00:57:50 27° S 01:01:43 45° ESE 01:10:00 10° NE
Cosmos 1674 4.1 01:02:12 24° ESE 01:03:12 27° E 01:06:25 10° NNE
MOS 1-B Rocket 4.4 01:01:15 25° SSE 01:06:07 88° WSW 01:12:47 10° NNW
Cosmos 1378 3.5 01:09:37 41° SW 01:10:36 55° WNW 01:14:20 10° N
ATLAS 3B R/B 4.1 01:04:20 10° W 01:11:27 40° NNW 01:18:18 10° NE
Cosmos 1151 Rocket 3.2 01:07:16 10° N 01:11:33 64° ENE 01:13:14 34° SSE
Cosmos 1743 Rocket 3.5 01:11:32 41° SSW 01:13:03 82° W 01:17:33 10° N
NOSS 3-2 (A) 3.5 01:09:50 27° SSW 01:13:30 81° SE 01:20:22 10° NE
Meteor 2-20 4.4 01:13:40 31° S 01:16:50 86° E 01:23:03 10° N
Helios 1A Rocket 3.6 01:13:27 10° N 01:17:20 45° WNW 01:18:55 30° WSW
Cosmos 2278 4.1 01:13:38 10° NW 01:19:00 46° WSW 01:21:07 32° SSW
Cosmos 1980 Rocket 2.9 01:16:45 10° NNW 01:22:16 52° NE 01:27:46 10° SE
Cosmos 836 Rocket 4.4 01:17:29 10° NNW 01:22:43 86° WSW 01:25:25 29° SSE
Cosmos 2151 3.8 01:22:29 28° SE 01:24:08 41° E 01:28:08 10° NNE
Cosmos 1818 4.1 01:22:20 10° NW 01:27:24 39° WSW 01:29:01 32° SSW
ASTEX 1 3.9 01:25:22 10° NNE 01:30:16 53° E 01:32:45 27° SSE
Cosmos 1486 Rocket 4.0 01:28:23 31° SW 01:30:56 74° WNW 01:36:11 10° NNE
Cosmos 1500 Rocket 3.5 01:29:42 40° SSW 01:31:13 78° W 01:35:34 10° N
Lacrosse 5 rocket 2.6 01:28:23 10° NW 01:32:29 45° NNE 01:36:46 10° E
Genesis I 3.2 01:29:05 10° NW 01:33:02 63° SW 01:34:04 44° S
Cosmos 1328 Rocket 4.4 01:31:07 10° NNW 01:35:07 35° W 01:36:23 29° SW
USA 215 4.3 01:33:02 10° ENE 01:38:36 29° SE 01:41:16 22° SSE
Cosmos 405 Rocket 4.0 01:39:18 24° WSW 01:40:41 30° WNW 01:44:05 10° N
Cosmos 1697 Rocket 2.6 01:37:49 10° NNW 01:43:31 78° WSW 01:47:10 23° SSE
Cosmos 1908 3.4 01:39:57 10° NNW 01:43:44 57° W 01:44:44 42° SSW
Cosmos 2082 Rocket 2.2 01:41:30 30° S 01:44:18 70° ESE 01:49:58 10° NNE
Cosmos 1515 Rocket 4.5 01:41:48 10° NNW 01:45:52 36° W 01:47:16 28° SW
Cosmos 405 3.0 01:43:29 10° N 01:47:06 78° ENE 01:48:21 38° SSE
Cosmos 1763 Rocket 4.3 01:47:46 10° NW 01:52:37 36° WSW 01:54:29 28° SW
Cosmos 1437 Rocket 2.9 01:50:03 10° NNW 01:53:58 59° W 01:55:09 39° SSW
Aureole 1 Rocket 3.2 01:50:30 10° NNW 01:54:45 76° WSW 01:58:08 23° SSE
Abrixas 4.3 01:55:54 21° ESE 01:55:54 21° ESE 01:57:30 10° E
Cosmos 1833 Rocket 2.8 01:53:20 28° S 01:56:18 68° ESE 02:01:55 10° NNE
Cosmos 540 Rocket 3.4 01:55:27 10° NNW 02:00:39 82° WSW 02:04:07 21° SSE
Cosmos 332 Rocket 3.9 01:57:22 10° NNW 02:02:12 77° ENE 02:06:01 16° SSE
Cosmos 1300 2.8 01:58:23 10° N 02:02:15 73° ENE 02:04:08 28° SSE
Cosmos 2360 4.4 01:57:25 10° NNW 02:03:09 73° ENE 02:08:51 10° SE
ERS-2 3.5 02:00:31 10° NNE 02:03:54 32° E 02:05:42 21° SE
Cosmos 1867 3.6 02:02:27 25° SW 02:05:45 82° NW 02:11:18 10° NE
Meteor 1-27 4.3 02:00:49 10° NNW 02:06:44 85° ENE 02:11:04 19° SSE
Cosmos 1441 Rocket 3.5 02:05:16 34° SW 02:06:48 60° WNW 02:10:44 10° N
Cosmos 2315 Rocket 4.5 02:04:19 10° NNW 02:10:22 48° W 02:13:53 24° SSW
Cosmos 2242 Rocket 3.9 02:06:32 10° N 02:10:58 65° ENE 02:14:03 19° SSE
SL-08 R/B 3.9 02:06:56 13° SSE 02:11:12 60° ENE 02:16:03 10° N
ISS -3.1 02:10:12 10° WNW 02:13:29 70° NNE 02:16:44 10° E
CZ-2C R/B 4.0 02:11:06 25° SW 02:13:37 37° W 02:18:54 10° NNW
USA 32 4.3 02:10:11 10° NNW 02:15:19 54° W 02:18:08 26° SSW
Cosmos 1354 Rocket 4.4 02:13:18 23° SW 02:16:30 59° WNW 02:21:45 10° NNE
SL-16 R/B 4.2 02:12:43 10° ESE 02:18:13 34° ENE 02:23:44 10° N
NOSS 3-2 (C) 4.0 02:13:37 14° WSW 02:19:05 59° NW 02:25:59 10° NE
CENTAUR R/B 2.9 02:15:55 23° S 02:19:45 55° ESE 02:26:32 10° NE
Cosmos 1656 4.5 02:15:31 10° NW 02:20:36 34° WSW 02:23:04 24° SSW
Cosmos 1805 Rocket 3.5 02:19:44 28° SSW 02:22:02 83° W 02:26:31 10° N
SL-16 R/B 2.8 02:16:31 10° NNW 02:22:08 58° NE 02:27:45 10° SE
Cosmos 1503 Rocket 4.5 02:20:30 22° SW 02:23:51 54° WNW 02:29:05 10° NNE
JB-3 4.4 02:19:47 10° NNE 02:23:51 73° ESE 02:25:57 27° S
Cosmos 724 4.3 02:22:26 22° SW 02:26:16 85° NW 02:32:14 10° NE
CZ-2C R/B 3.9 02:21:30 10° N 02:26:23 32° WNW 02:30:10 15° WSW
Lacrosse 5 2.0 02:22:09 10° WNW 02:27:02 48° SW 02:31:52 10° SSE
IRS-P3 4.3 02:22:35 10° NNE 02:27:55 66° ESE 02:31:40 20° S
Meteor 1-4 Rocket 3.7 02:24:26 10° N 02:28:02 43° ENE 02:31:39 10° SSE
Cosmos 1745 Rocket 4.1 02:24:42 20° S 02:29:21 82° E 02:35:43 10° N
Cosmos 1455 3.5 02:26:06 10° N 02:29:40 37° ENE 02:33:12 10° SE
CZ-4C R/B 3.2 02:24:35 10° WSW 02:29:55 47° NW 02:36:05 10° NE
Cosmos 1633 Rocket 3.1 02:28:37 23° S 02:31:18 78° E 02:35:45 10° NNE
Cosmos 1707 Rocket 3.9 02:27:15 10° NNW 02:31:30 49° W 02:33:41 25° SSW
Resurs 1-4 Rocket 4.4 02:28:11 10° NE 02:31:48 18° E 02:35:23 10° SE
Nadezhda 1 Rocket 3.9 02:26:07 10° N 02:32:21 84° W 02:37:28 15° S
Cosmos 2322 Rocket 2.4 02:29:52 10° NNW 02:35:33 76° ENE 02:41:10 10° SE
Cosmos 1674 4.1 02:37:10 19° WSW 02:38:50 25° WNW 02:42:02 10° NNW
COS B Rocket 3.7 02:37:00 10° NNW 02:38:51 20° W 02:38:51 20° W
Cosmos 1666 Rocket 3.5 02:36:22 25° SSW 02:38:52 75° W 02:43:12 10° N
Cosmos 1726 2.2 02:35:34 10° NNW 02:39:12 56° W 02:41:02 26° SSW
Cosmos 968 Rocket 3.9 02:39:02 18° S 02:42:41 53° ESE 02:47:42 10° NNE
Cosmos 1869 4.3 02:39:45 10° N 02:43:35 45° ENE 02:47:24 10° SSE
BREEZE-M DEB (TANK) 2.2 02:39:22 10° W 02:46:01 81° S 02:48:37 10° ESE
SL-14 R/B 3.2 02:45:06 24° SSW 02:47:16 72° W 02:51:08 10° N
ATLAS CENTAUR R/B 4.1 02:43:23 10° NNW 02:47:34 27° NNE 02:51:31 10° E
Cosmos 1470 Rocket 4.0 02:45:50 16° S 02:49:19 61° E 02:53:42 10° NNE
Meteor 1-11 4.4 02:47:31 19° SSW 02:51:42 70° WNW 02:57:33 10° N
IRAS Rocket 4.3 02:46:18 10° NNE 02:51:48 73° WNW 02:55:53 18° SSW
Cosmos 1538 Rocket 4.1 02:47:50 10° NNW 02:52:57 59° WSW 02:57:54 11° S
Cosmos 1933 Rocket 3.8 02:50:36 16° S 02:54:03 65° E 02:58:26 10° NNE
Cosmos 371 Rocket 3.4 02:49:36 10° NNW 02:54:23 57° WSW 02:58:40 12° S
Cosmos 923 Rocket 4.2 02:51:18 10° NNW 02:56:37 76° ENE 03:01:51 10° SSE
Cosmos 1703 3.2 02:57:22 19° S 03:00:09 87° W 03:04:09 10° N
Cosmos 1437 3.6 02:58:50 22° SW 03:00:33 39° WNW 03:03:44 10° N
Cosmos 2058 3.9 02:58:27 18° SW 03:00:55 34° WNW 03:04:46 10° N
SL-23 DEB 3.6 02:58:44 10° WNW 03:01:52 71° N 03:05:23 10° E
Cosmos 1626 2.9 03:00:02 12° S 03:03:17 50° E 03:06:57 10° NNE
Cosmos 1980 Rocket 3.0 03:01:09 10° NW 03:06:02 31° WSW 03:09:46 15° SSW
Cosmos 1680 Rocket 3.8 03:01:17 10° NNW 03:06:31 72° ENE 03:11:43 10° SSE
Cosmos 2360 Rocket 3.0 03:01:31 10° NNW 03:07:04 54° NE 03:12:34 10° SE
Cosmos 1933 4.4 03:03:24 10° N 03:07:18 44° ENE 03:11:09 10° SSE
Cosmos 1271 Rocket 2.7 03:06:36 10° NNW 03:10:23 62° W 03:13:39 13° S
Cosmos 304 Rocket 4.2 03:06:48 10° NNW 03:11:39 68° ENE 03:16:28 10° SSE
Lacrosse 5 rocket 1.5 03:07:39 10° WNW 03:11:55 56° SW 03:16:21 10° SE
Sich 1 3.8 03:10:34 17° SW 03:13:35 40° WNW 03:17:48 10° N
EO 1 Del DPAF 3.5 03:10:02 10° SSE 03:13:56 75° ENE 03:17:52 10° N
AQUA 3.9 03:09:21 10° N 03:14:07 71° WNW 03:18:04 15° SSW
CBERS-1 4.1 03:09:24 10° NNE 03:14:31 74° WNW 03:18:54 14° SSW
CZ-2D R/B 3.3 03:09:44 10° NNE 03:14:36 37° E 03:19:28 10° SSE
Cosmos 1777 Rocket 4.4 03:09:53 13° S 03:14:36 63° ESE 03:19:51 10° NNE
Okean O Rocket 4.1 03:12:39 10° NE 03:15:39 17° E 03:18:37 10° SE
Cosmos 2344 4.3 03:08:09 10° WSW 03:15:59 59° NW 03:25:42 10° NE
Cosmos 773 Rocket 4.0 03:12:59 10° NNW 03:18:04 62° WSW 03:23:07 10° S
Cosmos 2322 4.3 03:13:25 10° NNW 03:19:08 64° ENE 03:24:49 10° SE
ADEOS 3.6 03:13:58 10° NNE 03:19:14 90° W 03:24:10 12° SSW
NPP 3.9 03:14:07 10° N 03:19:25 59° WNW 03:24:02 14° SW
USA 215 3.3 03:15:39 10° ENE 03:22:14 82° SSE 03:28:36 11° SW
IRS-1D 4.2 03:17:37 10° NNE 03:22:54 55° E 03:28:06 10° S
ARIANE 5 R/B 3.0 03:18:30 10° NNE 03:23:36 60° ESE 03:28:36 10° S
Cosmos 1862 Rocket 3.9 03:20:03 10° NNW 03:24:25 51° W 03:28:43 10° S
Cosmos 1697 Rocket 4.5 03:23:47 10° WNW 03:26:32 14° W 03:28:52 11° WSW
Cosmos 2181 Rocket 4.0 03:21:34 10° NNW 03:27:41 72° W 03:33:50 10° S
Cosmos 2082 Rocket 3.7 03:24:09 10° WSW 03:28:56 27° NW 03:33:46 10° NNE
BREEZE-M DEB (TANK) 3.9 03:19:55 10° W 03:30:26 62° S 03:34:03 10° ESE
Abrixas 2.6 03:27:56 12° WSW 03:30:43 62° S 03:33:47 10° E
USA 161 1.9 03:29:42 18° SSW 03:31:00 30° W 03:33:10 10° NNW
Cosmos 1346 4.0 03:30:56 10° S 03:33:54 46° E 03:36:53 10° NNE
BREEZE-M TANK 2.5 03:31:39 10° WSW 03:35:51 39° S 03:38:12 10° ESE
Cosmos 2221 Rocket 3.7 03:31:33 10° N 03:36:04 86° E 03:40:35 10° S
BREEZE-M DEB (TANK) 3.6 03:34:11 13° SW 03:37:06 49° SE 03:47:05 10° ENE
ERS-2 3.7 03:34:32 10° N 03:37:35 24° WNW 03:40:33 10° WSW
Cosmos 1833 Rocket 4.1 03:35:55 10° WSW 03:40:44 28° NW 03:45:33 10° NNE
deb Kosmos-1763 4.4 03:39:12 12° SW 03:42:40 60° WNW 03:46:30 10° NNE
H-2A R/B 4.1 03:37:57 11° SW 03:43:24 27° SSE 04:04:05 10° ESE
CZ-2C R/B 4.4 03:40:30 10° SSE 03:44:54 59° ENE 03:49:26 10° N
UNK 3.7 03:40:58 10° S 03:45:32 73° WSW 03:50:08 10° NNW
COSMOS 2428 3.5 03:42:33 10° NNW 03:48:10 56° NE 03:53:44 10° SE
ISS -2.9 03:46:44 10° W 03:49:49 39° SSW 03:52:54 10° SE
ATLAS 5 CENTAUR R/B 2.9 03:46:44 10° S 03:51:21 42° ESE 03:56:20 10° NE
Cosmos 1869 Rocket 3.8 03:50:06 10° S 03:54:28 73° E 03:58:55 10° NNE
Cosmos 389 Rocket 4.3 03:53:33 10° N 03:57:02 37° ENE 04:00:29 10° SE
Cosmos 2112 Rocket 4.2 03:55:28 10° NNW 04:00:29 50° WSW 04:05:29 10° S
USA 129 2.2 04:00:04 13° SW 04:00:42 18° W 04:01:44 10° NW
SL-16 R/B 2.7 03:55:29 10° S 04:01:36 55° W 04:07:47 10° NNW
Meteor 1-4 Rocket 4.4 04:00:28 10° NW 04:02:56 17° W 04:05:25 10° SW
Cosmos 1455 3.8 04:02:24 10° NW 04:05:11 19° W 04:07:56 10° SW
SL-16 R/B 3.2 04:01:12 10° NW 04:05:54 27° WSW 04:10:36 10° SSW
Cosmos 2074 Rocket 4.1 04:00:16 10° S 04:06:30 90° W 04:12:48 10° N
MTI 4.3 04:03:20 10° S 04:06:33 43° W 04:09:48 10° NNW
Cosmos 2292 Rocket 3.8 04:06:22 10° SW 04:09:15 34° WNW 04:12:41 10° N
Cosmos 2184 Rocket 4.1 04:03:39 10° S 04:10:02 88° W 04:16:26 10° N
CENTAUR R/B 3.4 04:04:22 10° WSW 04:10:36 48° NNW 04:17:39 10° NE
Cosmos 2237 4.4 04:04:55 10° NNW 04:10:42 81° ENE 04:16:27 10° SSE
Cosmos 2237 Rocket 4.2 04:06:10 10° NNW 04:11:21 35° NE 04:16:31 10° ESE
Resurs 1-4 Rocket 2.2 04:06:54 10° NNE 04:12:14 76° WNW 04:17:33 10° SSW
